Weather in Mykonos

Greece     37°27′13″N   25°22′30″E
temp.,
°C
wind,
m/s
gust,
m/s
humid.,
%
clouds,
%
prec.,
mm/h
press.,
hPa
HPBL,
m
12 may, wed
wed1200:00+17nnw1214730 0.0 1012477
03:00+17nnw1214760 0.0 1011488
06:00+17nnw1112721 0.0 1010500
09:00+17nnw1011700 0.0 1011486
12:00+17nnw78691 0.0 1011416
15:00+18nw3467100 0.0 1011222
18:00+19ssw336458 0.0 100964
21:00+19ssw456961 0.0 100980
13 may, thu
thu1300:00+18s67830 0.0 1008158
03:00+18s57850 0.0 1007160
06:00+18sw79865 0.0 1007228
09:00+18sw57865 0.0 1008204
12:00+18sw56835 0.0 1009184
15:00+19wsw79800 0.0 1010200
18:00+19ssw44760 0.0 100971
21:00+19ssw56821 0.0 1010113
14 may, fri
fri1400:00+18sse56860 0.0 1010126
03:00+18ssw56850 0.0 1010118
06:00+18ssw68840 0.0 1010170
09:00+18sw79800 0.0 1012228
12:00+18sw78790 0.0 1013177
15:00+19wsw56730 0.0 101488
18:00+19sw56730 0.0 101492
21:00+19ssw33742 0.0 101449
15 may, sat
sat1500:00+19s44730 0.0 101432
03:00+19s33755 0.0 101337
06:00+19sse33750 0.0 101228
09:00+19sse448010 0.0 101277
12:00+19ssw347112 0.0 101252
15:00+20s3471100 0.0 101168
18:00+21ssw6869100 0.0 1009105
21:00+20sw91373100 0.0 1008259
16 may, sun
sun1600:00+19sw101475100 0.0 1007423
03:00+19wsw10128486 0.0 1006287
06:00+18wnw57820 0.0 1006229
09:00+19nnw711740 0.1 1006397
12:00+18nw811740 0.0 1008405
15:00+18nnw58740 0.0 1008241
18:00+19nnw45730 0.0 1008185
21:00+19w34650 0.0 100846